Flag for U.S.A. Weather past 2 weeks in Baton Rouge, Louisiana, U.S.A.

Now
70 °F

Sunny.


Feels Like: 67 °F
Forecast: 67 / 83 °F
Wind: 7 mph from West

Location: Baton Rouge Metropolitan - Ryan Field

Current Time: Apr 19, 2015 at 8:41:46 AM

Latest Report: Apr 19, 2015 at 7:53 AM


Visibility: 9 mi

Pressure: 29.73 "Hg

Humidity: 90%

Dew point: 67 °F

Location of Baton RougeLocation

Historic Weather in Baton Rouge — Graph

°F

Baton Rouge temperature yesterday

Maximum temperature yesterday: 79 °F (at 1:53 PM)
Minimum temperature yesterday: 69 °F (at 3:53 AM)
Average temperature yesterday: 72 °F

Past Weeks' High & Low Weather Summary

 TemperatureHumidityPressure
High87 °F (Apr 8, 1:53 PM)100% (Apr 7, 5:53 AM)30.28 "Hg (Apr 7, 5:53 AM)
Low52 °F (Apr 5, 4:53 AM)35% (Apr 4, 4:53 PM)29.73 "Hg (Apr 19, 6:53 AM)
Average71 °F84%30.02 "Hg
* Reported Apr 4 6:04 AM — Apr 19 6:53 AM, Baton Rouge, Weather by CustomWeather, © 2015

Note: Actual official high and low records may vary slightly from our data, if they occured in-between our weather recording intervals... More about our weather records

Advertising

Baton Rouge weather history for previous 24 hours

 ConditionsComfort  
Time TempWeatherWind HumidityBarometerVisibility
6:53 AM
Sun, Apr 19
68 °FClear.6 mph93%29.73 "Hg7 mi
5:53 AM69 °FClear.10 mph93%29.78 "Hg10 mi
4:53 AM70 °FMostly cloudy.9 mph93%29.80 "Hg10 mi
3:53 AM70 °FPassing clouds.8 mph93%29.79 "Hg10 mi
2:53 AM71 °FPassing clouds.12 mph93%29.79 "Hg10 mi
1:53 AM71 °FPassing clouds.9 mph93%29.79 "Hg10 mi
12:53 AM71 °FPassing clouds.8 mph93%29.80 "Hg10 mi
11:53 PM
Sat, Apr 18
70 °FPassing clouds.6 mph97%29.79 "Hg10 mi
10:53 PM71 °FFog.8 mph93%29.79 "Hg5 mi
9:53 PM72 °FLight rain. Mostly cloudy.3 mph91%29.80 "Hg7 mi
8:53 PM73 °FPartly cloudy.10 mph88%29.81 "Hg10 mi
7:53 PM73 °FBroken clouds.13 mph88%29.82 "Hg10 mi
6:53 PM74 °FPartly sunny.8 mph85%29.80 "Hg10 mi
5:53 PM76 °FPartly sunny.10 mph77%29.81 "Hg10 mi
4:53 PM76 °FMostly cloudy.10 mph74%29.83 "Hg10 mi
3:53 PM77 °FMostly cloudy.15 mph71%29.84 "Hg10 mi
2:53 PM77 °FPartly sunny.9 mph74%29.85 "Hg10 mi
1:53 PM79 °FPartly sunny.9 mph72%29.84 "Hg10 mi
1:00 PM78 °FPartly sunny.7 mph74%29.86 "Hg10 mi
11:53 AM73 °FPartly sunny.12 mph81%29.88 "Hg10 mi
10:53 AM73 °FPartly sunny.9 mph84%29.88 "Hg10 mi
9:53 AM70 °FLight rain. Partly sunny.10 mph93%29.89 "Hg7 mi
8:53 AM69 °FLight rain. Fog.10 mph96%29.92 "Hg5 mi
Weather by CustomWeather, © 2015

See weather overviewHow to use our weather pages